[[{"header":{"parameterUnit":"m.s-1","parameterCategory":2,"la1":30.2991,"la2":30.254,"lo1":-89.0895,"lo2":-89.0444,"dy":0.0017,"dx":0.0017,"nx":28,"ny":28,"refTime":"2025-05-14T21:00:00:Z","depth":"0","parameterNumber":2,"parameterNumberName":"U-component_of_CURRENTS"},"data":[0,0,0,0,0,0,0,0,0,0,0,0,0,0,0,0,0,0,0,0,0,0,0,0,0,0,0,0,0,0,0,0,0,0,0,0,0,0,0,0,0,0,0,0,0,0,0,0,0,0,0,0,0,0,0,0,0,0,0.3495,0.3497,0,0.3717,0.372,0.3722,0.3701,0.3697,0.3693,0.369,0.3769,0.3774,0.3779,0,0,0,0,0,0,0,0,0,0,0,0,0,0.3254,0.3257,0.3495,0.3498,0.35,0.3716,0.372,0.3723,0.3701,0.3697,0.3693,0.3688,0.3767,0.3773,0.378,0,0,0,0,0,0,0,0,0,0,0,0,0,0.3407,0.3259,0.3495,0.3514,0.3518,0.3716,0.372,0.3724,0.3702,0.3697,0.3691,0.3686,0.3765,0.3773,0.3781,0.394,0,0,0.3806,0.3809,0,0,0,0,0,0,0,0,0.3398,0.3416,0.3509,0.3513,0.3518,0.3674,0.3664,0.3788,0.3704,0.3634,0.369,0.3684,0.3727,0.3738,0.3796,0.3944,0.3947,0.3807,0.3811,0.3815,0.3817,0,0,0,0,0,0,0,0.3387,0.3407,0.3585,0.3512,0.3517,0.3581,0.3595,0.3689,0.3707,0.364,0.3638,0.3662,0.3727,0.3788,0.3797,0.3948,0.3806,0.3814,0.3819,0.3822,0.4092,0.4094,0,0,0,0,0,0,0.3353,0.3397,0.3578,0.3591,0.3441,0.3588,0.3604,0.3631,0.3709,0.3716,0.3666,0.366,0.3777,0.3788,0.38,0.3899,0.3815,0.3823,0.3827,0.409,0.4092,0.4095,0,0,0,0,0,0,0.3347,0.3367,0.3569,0.3497,0.3526,0.3596,0.3628,0.3638,0.3684,0.373,0.3734,0.3697,0.3773,0.3788,0.3881,0.3904,0.3826,0.3834,0.4087,0.4091,0.4094,0.4158,0,0,0,0,0,0,0.3339,0.3364,0.3392,0.3495,0.3529,0.3713,0.3633,0.3646,0.3706,0.37,0.376,0.3762,0.377,0.3869,0.389,0.3914,0.384,0.4084,0.4089,0.4093,0.4153,0.4163,0.4171,0,0,0,0,0,0.333,0.341,0.3393,0.3415,0.3559,0.3718,0.3745,0.3776,0.3713,0.3785,0.3791,0.376,0.3907,0.3881,0.3903,0.393,0.4082,0.4087,0.4092,0.4148,0.4161,0.4171,0,0,0,0,0,0,0.3338,0.3419,0.34,0.3502,0.3602,0.3713,0.379,0.379,0.3861,0.3835,0.3831,0.384,0.3922,0.3935,0.3904,0.4017,0.3975,0.3985,0.401,0.4022,0.4032,0.4049,0.3847,0,0,0,0,0,0.3348,0.3412,0.3504,0.3587,0.3636,0.3705,0.3771,0.3796,0.3863,0.3887,0.3915,0.3935,0.3975,0.4,0.406,0.4157,0.4191,0.4175,0.4185,0.4192,0.4222,0.4303,0.4322,0.4112,0.4112,0.4111,0,0,0.3375,0.3426,0.3464,0.3592,0.3662,0.3758,0.3734,0.3855,0.3906,0.389,0.3972,0.3995,0.4013,0.41,0.4133,0.4104,0.4272,0.4199,0.4205,0.4231,0.431,0.4331,0.4349,0.4115,0.4114,0.4114,0,0,0.3474,0.3506,0.3592,0.3669,0.3781,0.3831,0.3858,0.3972,0.3995,0.4109,0.4064,0.4112,0.4205,0.4211,0.4219,0.4331,0.4328,0.4322,0.4382,0.446,0.4478,0.4495,0.457,0.4592,0.4315,0.4315,0.4315,0,0.3494,0.359,0.3654,0.3747,0.38,0.3849,0.3943,0.4008,0.4128,0.4157,0.4138,0.4246,0.4259,0.4316,0.4336,0.4352,0.4396,0.4332,0.4473,0.449,0.4506,0.4578,0.4603,0.4319,0.4318,0.4318,0.4317,0,0.3671,0.371,0.3778,0.387,0.396,0.4061,0.4132,0.4212,0.4226,0.4267,0.4357,0.4397,0.4446,0.4443,0.4428,0.4522,0.4518,0.4483,0.4442,0.4531,0.4602,0.4626,0.4324,0.4323,0.4321,0.4321,0,0,0.376,0.387,0.3875,0.3885,0.4014,0.4094,0.4201,0.431,0.4348,0.4446,0.4509,0.4573,0.4577,0.4588,0.4565,0.4624,0.4764,0.4603,0.4606,0.4676,0.4951,0.4845,0.4861,0.4753,0.4757,0.4761,0.4957,0,0.3851,0.3971,0.4032,0.4115,0.4164,0.4229,0.4313,0.4407,0.4477,0.4563,0.4594,0.4656,0.4628,0.4645,0.4709,0.4748,0.4831,0.4716,0.4858,0.4863,0.4756,0.4886,0.4618,0.4762,0.4981,0.4985,0.4988,0,0.3987,0.4021,0.4115,0.4151,0.4189,0.4255,0.4365,0.4459,0.4584,0.4643,0.4726,0.4753,0.4846,0.4806,0.4964,0.4892,0.4949,0.4981,0.4988,0.4888,0.4802,0.4709,0.4797,0.4667,0.5024,0.5021,0.5019,0,0.3971,0.4061,0.4105,0.4131,0.4224,0.427,0.4338,0.4471,0.4547,0.4692,0.477,0.4872,0.4936,0.5031,0.5108,0.5053,0.529,0.521,0.5181,0.5174,0.4975,0.4942,0.495,0.5365,0.5364,0.5364,0.5363,0,0.4013,0.4029,0.4078,0.4093,0.414,0.4231,0.4322,0.442,0.4565,0.4661,0.4788,0.4886,0.5004,0.5134,0.5184,0.5272,0.5363,0.5242,0.5234,0.4988,0.4955,0.4853,0.4825,0.5371,0.537,0.5368,0.5367,0,0.3969,0.4017,0.4042,0.4106,0.4126,0.4157,0.4288,0.4357,0.4521,0.4663,0.4717,0.4932,0.51,0.5218,0.5384,0.5361,0.5298,0.5462,0.5165,0.5117,0.4888,0.4873,0.4776,0.4645,0.5442,0.5441,0.544,0,0.3944,0.3957,0.4014,0.4026,0.4043,0.4103,0.4155,0.431,0.4402,0.468,0.4743,0.4966,0.5092,0.5314,0.5316,0.5405,0.5287,0.5212,0.5042,0.4883,0.4863,0.4699,0.4583,0.4818,0.4812,0.4807,0.4803,0,0.3867,0.3903,0.3928,0.3949,0.3976,0.4022,0.4111,0.4167,0.4376,0.45,0.4676,0.4799,0.5025,0.4989,0.5128,0.514,0.4926,0.5109,0.5023,0.4461,0.4207,0.407,0.4696,0.4759,0.4764,0.4767,0.4769,0.4771,0.3792,0.3798,0.3841,0.3848,0.3876,0.3899,0.3887,0.4007,0.41,0.4233,0.4478,0.4553,0.4675,0.4799,0.4801,0.46,0.4646,0.4428,0.4459,0.4333,0.4084,0.462,0.461,0.4614,0.4617,0.4619,0.4622,0,0.3653,0.3701,0.3731,0.372,0.368,0.3755,0.3811,0.3771,0.3779,0.396,0.4067,0.4127,0.4133,0.4206,0.4126,0.3972,0.3784,0.3874,0.3578,0.3524,0.4068,0.3912,0.3652,0.3652,0.3652,0.3652,0.3652,0.3652,0.3592,0.3581,0.3609,0.3498,0.3489,0.3383,0.3369,0.3343,0.34,0.339,0.3391,0.3534,0.376,0.3818,0.3651,0.3549,0.3307,0.3125,0.3212,0.3588,0.364,0.369,0.3535,0.3199,0.3199,0.2431,0.2426,0.2422]},{"header":{"parameterUnit":"m.s-1","parameterCategory":2,"la1":30.2991,"la2":30.254,"lo1":-89.0895,"lo2":-89.0444,"dy":0.0017,"dx":0.0017,"nx":28,"ny":28,"refTime":"2025-05-14T21:00:00:Z","depth":"0","parameterNumber":3,"parameterNumberName":"V-component_of_CURRENTS"},"data":[0,0,0,0,0,0,0,0,0,0,0,0,0,0,0,0,0,0,0,0,0,0,0,0,0,0,0,0,0,0,0,0,0,0,0,0,0,0,0,0,0,0,0,0,0,0,0,0,0,0,0,0,0,0,0,0,0,0,-0.002,-0.002,0,-0.0051,-0.0052,-0.0052,-0.0088,-0.0088,-0.0088,-0.0089,-0.014,-0.0141,-0.0142,0,0,0,0,0,0,0,0,0,0,0,0,0,-0.0035,-0.0035,-0.002,-0.002,-0.002,-0.0051,-0.0052,-0.0052,-0.0088,-0.0088,-0.0088,-0.0089,-0.014,-0.0141,-0.0143,0,0,0,0,0,0,0,0,0,0,0,0,0,-0.0047,-0.0035,-0.002,-0.0039,-0.0041,-0.0051,-0.0052,-0.0053,-0.0088,-0.0088,-0.0089,-0.0089,-0.0139,-0.0141,-0.0143,-0.0147,0,0,-0.0148,-0.0149,0,0,0,0,0,0,0,0,-0.0046,-0.0047,-0.0036,-0.0038,-0.004,-0.0063,-0.0076,-0.0084,-0.0088,-0.0074,-0.0089,-0.0089,-0.0114,-0.0118,-0.0127,-0.015,-0.0152,-0.0148,-0.0149,-0.015,-0.0151,0,0,0,0,0,0,0,-0.0045,-0.0046,-0.0036,-0.0036,-0.0038,-0.0061,-0.0063,-0.0078,-0.0095,-0.0075,-0.0077,-0.0074,-0.0115,-0.0126,-0.0129,-0.0153,-0.0148,-0.015,-0.0151,-0.0152,-0.0118,-0.0116,0,0,0,0,0,0,-0.0031,-0.0045,-0.0035,-0.0037,-0.004,-0.006,-0.0062,-0.0058,-0.0094,-0.0099,-0.0074,-0.0076,-0.0122,-0.0127,-0.0131,-0.0081,-0.015,-0.0152,-0.0153,-0.012,-0.0117,-0.0115,0,0,0,0,0,0,-0.0032,-0.003,-0.0034,-0.0039,-0.004,-0.0058,-0.0054,-0.0058,-0.0064,-0.0093,-0.0098,-0.0074,-0.0123,-0.0128,-0.0117,-0.0085,-0.0153,-0.0154,-0.0122,-0.0119,-0.0116,-0.0018,0,0,0,0,0,0,-0.0032,-0.003,-0.0027,-0.0038,-0.0039,-0.0021,-0.0053,-0.0059,-0.0061,-0.0064,-0.0095,-0.01,-0.0124,-0.0114,-0.0119,-0.0089,-0.0156,-0.0124,-0.0121,-0.0117,-0.0024,-0.0012,-0.0002,0,0,0,0,0,-0.0032,-0.0015,-0.0027,-0.0026,-0.0033,-0.0019,-0.0022,-0.0039,-0.006,-0.005,-0.0063,-0.0099,-0.0094,-0.0113,-0.012,-0.009,-0.0126,-0.0122,-0.0117,-0.0029,-0.0014,-0.0002,0,0,0,0,0,0,-0.0019,-0.0017,-0.003,-0.0014,-0.0011,-0.0023,-0.0018,-0.0033,-0.0038,-0.0042,-0.0077,-0.0082,-0.0058,-0.0086,-0.0106,-0.0067,-0.0115,-0.0112,-0.0045,-0.0032,-0.0022,0.0012,-0.0157,0,0,0,0,0,-0.0015,-0.0003,-0.0004,0.0009,0.0012,-0.0005,-0.0006,-0.0012,-0.0016,-0.002,-0.0034,-0.0046,-0.0046,-0.0048,-0.0052,-0.0037,-0.0058,-0.0019,-0.0009,0.0001,0.0026,0.0026,0.0039,-0.0101,-0.0101,-0.0101,0,0,-0.0006,-0.0004,0.0002,0.0012,0.0006,0.0046,-0.0007,0.0007,0.0044,-0.0024,0.0018,-0.0009,-0.0032,-0.0004,0.0003,-0.0024,0.0028,0.0006,0.0014,0.0035,0.0032,0.0045,0.0057,-0.0098,-0.0098,-0.0099,0,0,0.0047,0.002,0.0063,0.0075,0.0085,0.0076,0.0086,0.0087,0.0088,0.012,0.0086,0.0089,0.0083,0.0082,0.0077,0.0145,0.0087,0.0132,0.0211,0.021,0.0221,0.0231,0.0213,0.022,0.0135,0.0135,0.0135,0,0.0062,0.0111,0.0077,0.0132,0.0148,0.0101,0.016,0.0161,0.0171,0.0182,0.0153,0.0167,0.0134,0.0177,0.0195,0.0171,0.015,0.016,0.0224,0.0233,0.0242,0.022,0.0227,0.014,0.014,0.0139,0.0139,0,0.0161,0.0198,0.0223,0.0273,0.0284,0.0321,0.0322,0.0338,0.0321,0.032,0.0353,0.0318,0.0325,0.0311,0.0269,0.0316,0.0274,0.0238,0.019,0.0262,0.0234,0.024,0.0148,0.0146,0.0144,0.0143,0,0,0.0219,0.0282,0.0298,0.0335,0.036,0.0381,0.0437,0.047,0.0512,0.0504,0.0563,0.0543,0.0501,0.0494,0.0441,0.0435,0.0455,0.0362,0.0359,0.0343,0.044,0.0384,0.0384,0.0421,0.0423,0.0424,0.0393,0,0.0314,0.0432,0.0438,0.0539,0.0591,0.0566,0.0622,0.064,0.0638,0.0684,0.0642,0.0674,0.0577,0.058,0.0559,0.049,0.0476,0.0467,0.0375,0.0373,0.0313,0.0391,0.0378,0.0347,0.0398,0.0399,0.0399,0,0.0435,0.0486,0.06,0.0665,0.0685,0.0733,0.0785,0.0837,0.0869,0.0871,0.0879,0.084,0.0838,0.0745,0.067,0.0664,0.0565,0.0502,0.0498,0.0422,0.0328,0.0286,0.0355,0.0173,0.0407,0.0406,0.0406,0,0.0505,0.0608,0.0689,0.0715,0.0779,0.0818,0.0853,0.0892,0.0954,0.0997,0.1049,0.1008,0.1022,0.0907,0.0753,0.0714,0.0667,0.0592,0.0454,0.0447,0.0409,0.0397,0.0295,0.055,0.055,0.055,0.055,0,0.0615,0.0685,0.0723,0.0774,0.0861,0.0884,0.0992,0.1019,0.11,0.121,0.115,0.1235,0.1065,0.1007,0.0829,0.0669,0.072,0.0496,0.0451,0.0441,0.0432,0.0248,0.0134,0.0549,0.0549,0.055,0.055,0,0.0696,0.0731,0.0815,0.0876,0.0902,0.0962,0.1083,0.1172,0.1233,0.1384,0.1414,0.142,0.135,0.1158,0.0987,0.079,0.051,0.0549,0.0539,0.0494,0.0171,0.0063,-0.0089,-0.0172,0.0395,0.0393,0.0392,0,0.0754,0.0807,0.0877,0.093,0.096,0.1057,0.1145,0.1226,0.1341,0.1514,0.1607,0.1595,0.1621,0.1338,0.0997,0.0692,0.0495,0.0451,0.0372,0.0178,0.0025,-0.0057,-0.0121,0.0353,0.0352,0.0351,0.035,0,0.0842,0.0853,0.0915,0.1017,0.11,0.1215,0.1352,0.1461,0.1602,0.174,0.1919,0.196,0.1715,0.1414,0.0976,0.0748,0.0306,0.0416,0.0234,0.0012,-0.0098,-0.0207,0.0329,0.034,0.0341,0.0342,0.0343,0.0343,0.0891,0.0938,0.1016,0.1115,0.122,0.1373,0.1492,0.166,0.1861,0.2096,0.2134,0.2218,0.1771,0.1188,0.0863,0.0229,0.0233,0.0021,-0.0086,-0.0144,-0.0245,0.0261,0.0205,0.0206,0.0206,0.0206,0.0206,0,0.0948,0.1014,0.1119,0.1243,0.1376,0.1415,0.1635,0.1772,0.2015,0.2216,0.2372,0.2185,0.164,0.1063,0.0226,-0.0195,-0.0338,-0.0426,-0.0538,-0.0573,-0.01,-0.0123,-0.0273,-0.0273,-0.0273,-0.0273,-0.0272,-0.0272,0.0985,0.1087,0.1144,0.1356,0.1456,0.1637,0.1764,0.1962,0.2128,0.2344,0.2386,0.2415,0.1959,0.0523,-0.0418,-0.0625,-0.0914,-0.1003,-0.1123,-0.0809,-0.0774,-0.0742,-0.0789,-0.1076,-0.1077,-0.1537,-0.1542,-0.1546]}],[{"header":{"parameterUnit":"m.s-1","parameterCategory":2,"la1":30.2991,"la2":30.254,"lo1":-89.0895,"lo2":-89.0444,"dy":0.0017,"dx":0.0017,"nx":28,"ny":28,"refTime":"2025-05-14T21:00:00:Z","depth":"2","parameterNumber":2,"parameterNumberName":"U-component_of_CURRENTS"},"data":[0,0,0,0,0,0,0,0,0,0,0,0,0,0,0,0,0,0,0,0,0,0,0,0,0,0,0,0,0,0,0,0,0,0,0,0,0,0,0,0,0,0,0,0,0,0,0,0,0,0,0,0,0,0,0,0,0,0,0.2883,0.2882,0,0.3045,0.3049,0.3053,0.3009,0.3003,0.2997,0.2991,0.3172,0.3182,0.3192,0,0,0,0,0,0,0,0,0,0,0,0,0,0.2857,0.2858,0.2883,0.2882,0.2882,0.3044,0.3049,0.3054,0.301,0.3003,0.2995,0.2989,0.3169,0.3181,0.3193,0,0,0,0,0,0,0,0,0,0,0,0,0,0.2955,0.2858,0.2883,0.2858,0.2855,0.3043,0.3049,0.3056,0.3011,0.3002,0.2993,0.2985,0.3165,0.318,0.3195,0.3469,0,0,0.3242,0.3249,0,0,0,0,0,0,0,0,0.2949,0.296,0.2862,0.2859,0.2856,0.2972,0.3104,0.3185,0.3014,0.2983,0.2991,0.2981,0.3095,0.3115,0.3207,0.3478,0.3485,0.3244,0.3253,0.326,0.3264,0,0,0,0,0,0,0,0.2942,0.2954,0.2977,0.2861,0.2858,0.2946,0.2951,0.3124,0.311,0.2985,0.2975,0.2949,0.3096,0.3192,0.321,0.3488,0.3243,0.3257,0.3267,0.3273,0.3751,0.3754,0,0,0,0,0,0,0.2857,0.2947,0.2971,0.2978,0.2849,0.295,0.2957,0.2968,0.3107,0.3111,0.2957,0.2946,0.317,0.3192,0.3216,0.3373,0.326,0.3274,0.3283,0.3748,0.3752,0.3755,0,0,0,0,0,0,0.2857,0.286,0.2964,0.2941,0.2955,0.2954,0.2971,0.2975,0.3068,0.308,0.3088,0.3038,0.3164,0.3194,0.3332,0.3384,0.3281,0.3295,0.3744,0.3749,0.3754,0.3799,0,0,0,0,0,0,0.2857,0.2861,0.2892,0.2936,0.2952,0.3101,0.2976,0.2983,0.3051,0.304,0.3155,0.3161,0.3159,0.3309,0.3348,0.3404,0.3308,0.3739,0.3746,0.3752,0.3794,0.3805,0.3815,0,0,0,0,0,0.2857,0.2884,0.2894,0.2896,0.2979,0.3103,0.313,0.3115,0.3063,0.3162,0.3173,0.3158,0.3373,0.3328,0.3371,0.3432,0.3736,0.3744,0.3752,0.3789,0.3803,0.3815,0,0,0,0,0,0,0.2877,0.2882,0.2892,0.292,0.3022,0.3084,0.3139,0.3164,0.3274,0.3242,0.3253,0.3268,0.3388,0.344,0.3387,0.3584,0.3539,0.3555,0.3551,0.3566,0.3577,0.3595,0.332,0,0,0,0,0,0.2902,0.2929,0.2985,0.3023,0.3066,0.314,0.3195,0.3211,0.3272,0.3312,0.3359,0.3407,0.3477,0.3533,0.3613,0.3794,0.381,0.3845,0.3856,0.3865,0.3909,0.3938,0.3954,0.3781,0.378,0.378,0,0,0.2924,0.2919,0.2943,0.3033,0.3099,0.3201,0.316,0.3258,0.3338,0.3325,0.3447,0.3475,0.3532,0.3654,0.3715,0.3695,0.393,0.3875,0.3882,0.3922,0.3948,0.3964,0.3979,0.3786,0.3785,0.3784,0,0,0.2989,0.2987,0.3064,0.3137,0.3223,0.3271,0.3308,0.3413,0.3458,0.3616,0.3557,0.3611,0.379,0.3786,0.3818,0.3975,0.398,0.4005,0.4098,0.4124,0.4137,0.415,0.4204,0.422,0.4016,0.4016,0.4016,0,0.3013,0.3092,0.3122,0.3208,0.3236,0.33,0.3406,0.3506,0.3635,0.3682,0.3645,0.3806,0.384,0.3938,0.396,0.3998,0.4032,0.403,0.4134,0.4147,0.4158,0.4211,0.4228,0.4019,0.4019,0.4018,0.4018,0,0.3181,0.3213,0.3253,0.3359,0.3436,0.3526,0.3611,0.3713,0.3748,0.3818,0.3939,0.3976,0.4054,0.4065,0.4078,0.4182,0.4187,0.413,0.4087,0.4178,0.4228,0.4246,0.4024,0.4022,0.4021,0.4021,0,0,0.3287,0.3354,0.3371,0.3385,0.3499,0.3562,0.3697,0.3839,0.3906,0.4023,0.4117,0.421,0.4217,0.4255,0.4251,0.4286,0.4387,0.4273,0.4273,0.4308,0.4491,0.4337,0.4341,0.4347,0.435,0.4353,0.4495,0,0.3414,0.3503,0.3551,0.3643,0.3673,0.3731,0.3844,0.3963,0.4056,0.4172,0.4219,0.4312,0.4296,0.4321,0.4368,0.4378,0.4438,0.4358,0.4419,0.4423,0.4255,0.4356,0.3997,0.408,0.4512,0.4515,0.4517,0,0.3611,0.3581,0.3676,0.3674,0.3714,0.3801,0.3909,0.4036,0.4207,0.4284,0.4385,0.4431,0.4533,0.4477,0.4581,0.4539,0.456,0.4552,0.4555,0.4414,0.43,0.4062,0.4095,0.4546,0.4544,0.4542,0.454,0,0.364,0.3685,0.3714,0.3725,0.3775,0.3835,0.3904,0.4063,0.4175,0.4352,0.4437,0.4554,0.4622,0.4659,0.4689,0.4653,0.4783,0.4701,0.4591,0.4581,0.4291,0.4248,0.4792,0.4792,0.4792,0.4791,0.4791,0,0.3735,0.3744,0.3704,0.3715,0.3728,0.3808,0.3932,0.4025,0.4218,0.4357,0.4487,0.4585,0.4676,0.4758,0.4757,0.4743,0.4838,0.4653,0.4612,0.4298,0.4257,0.4664,0.4647,0.4797,0.4796,0.4795,0.4794,0,0.3773,0.3779,0.3761,0.3755,0.3746,0.3763,0.3902,0.4007,0.4196,0.4379,0.4443,0.4655,0.4736,0.4801,0.4867,0.4811,0.4798,0.4769,0.4416,0.433,0.4574,0.4559,0.4667,0.4663,0.4659,0.4656,0.4654,0,0.3785,0.3783,0.3741,0.371,0.3703,0.3732,0.3785,0.3964,0.4069,0.4392,0.4453,0.4642,0.4664,0.472,0.4656,0.4619,0.4751,0.4305,0.4144,0.4614,0.4565,0.4555,0.4545,0.3801,0.3792,0.3784,0.3778,0,0.3737,0.3763,0.3761,0.3681,0.3682,0.3691,0.3763,0.3818,0.4073,0.4165,0.4309,0.4354,0.445,0.4223,0.4226,0.4163,0.4267,0.4147,0.4739,0.3868,0.3802,0.3752,0.377,0.3711,0.3717,0.3722,0.3726,0.3729,0.3705,0.3683,0.3704,0.3632,0.364,0.3632,0.3607,0.3672,0.3738,0.3805,0.3992,0.3899,0.3957,0.3691,0.3596,0.358,0.3853,0.371,0.3732,0.3762,0.3615,0.3544,0.3381,0.3386,0.339,0.3393,0.3397,0,0.3555,0.3599,0.3605,0.3542,0.353,0.356,0.357,0.3474,0.338,0.3438,0.3412,0.3099,0.2938,0.3038,0.2873,0.2878,0.2839,0.2805,0.273,0.2799,0.2861,0.2666,0.2182,0.2178,0.2174,0.2171,0,0,0.3489,0.3471,0.3493,0.3416,0.3393,0.3295,0.3256,0.3066,0.2998,0.2736,0.2622,0.2741,0.2886,0.2458,0.2437,0.2284,0.2515,0.2198,0.3176,0.3154,0.321,0.3393,0.3173,0,0,0,0,0]},{"header":{"parameterUnit":"m.s-1","parameterCategory":2,"la1":30.2991,"la2":30.254,"lo1":-89.0895,"lo2":-89.0444,"dy":0.0017,"dx":0.0017,"nx":28,"ny":28,"refTime":"2025-05-14T21:00:00:Z","depth":"2","parameterNumber":3,"parameterNumberName":"V-component_of_CURRENTS"},"data":[0,0,0,0,0,0,0,0,0,0,0,0,0,0,0,0,0,0,0,0,0,0,0,0,0,0,0,0,0,0,0,0,0,0,0,0,0,0,0,0,0,0,0,0,0,0,0,0,0,0,0,0,0,0,0,0,0,0,-0.0166,-0.0167,0,-0.0264,-0.0266,-0.0268,-0.0296,-0.0294,-0.0293,-0.0292,-0.0371,-0.0374,-0.0377,0,0,0,0,0,0,0,0,0,0,0,0,0,-0.0167,-0.0167,-0.0166,-0.0167,-0.0167,-0.0264,-0.0266,-0.0268,-0.0296,-0.0294,-0.0293,-0.0291,-0.037,-0.0374,-0.0378,0,0,0,0,0,0,0,0,0,0,0,0,0,-0.0214,-0.0167,-0.0166,-0.0186,-0.0188,-0.0263,-0.0266,-0.0269,-0.0296,-0.0294,-0.0292,-0.029,-0.0368,-0.0373,-0.0378,-0.045,0,0,-0.0394,-0.0396,0,0,0,0,0,0,0,0,-0.0211,-0.0215,-0.0183,-0.0185,-0.0187,-0.0258,-0.0295,-0.0325,-0.0297,-0.0265,-0.0292,-0.0289,-0.0327,-0.0335,-0.0371,-0.0454,-0.0457,-0.0394,-0.0397,-0.04,-0.0401,0,0,0,0,0,0,0,-0.0208,-0.0212,-0.0214,-0.0183,-0.0186,-0.0245,-0.0249,-0.0302,-0.0313,-0.0267,-0.0267,-0.0265,-0.0329,-0.0366,-0.0373,-0.0459,-0.0394,-0.0399,-0.0402,-0.0404,-0.038,-0.0377,0,0,0,0,0,0,-0.0171,-0.0208,-0.0211,-0.0216,-0.0184,-0.0245,-0.025,-0.0244,-0.0313,-0.0319,-0.0266,-0.0265,-0.0359,-0.0367,-0.0376,-0.0321,-0.0399,-0.0404,-0.0407,-0.0384,-0.0379,-0.0375,0,0,0,0,0,0,-0.0171,-0.0171,-0.0207,-0.0208,-0.0215,-0.0245,-0.024,-0.0247,-0.0266,-0.031,-0.0317,-0.0273,-0.0358,-0.0369,-0.0355,-0.033,-0.0406,-0.0411,-0.0388,-0.0382,-0.0377,-0.0304,0,0,0,0,0,0,-0.0171,-0.017,-0.0168,-0.0205,-0.0213,-0.0213,-0.0241,-0.025,-0.0264,-0.0264,-0.032,-0.0326,-0.0357,-0.0346,-0.036,-0.0338,-0.0415,-0.0393,-0.0386,-0.0379,-0.0311,-0.0297,-0.0285,0,0,0,0,0,-0.017,-0.0158,-0.0167,-0.0168,-0.0204,-0.0211,-0.0221,-0.0244,-0.0266,-0.026,-0.027,-0.0323,-0.0311,-0.0349,-0.0365,-0.0344,-0.0396,-0.0388,-0.038,-0.0317,-0.03,-0.0285,0,0,0,0,0,0,-0.016,-0.0161,-0.017,-0.016,-0.0168,-0.0211,-0.0215,-0.024,-0.0257,-0.0253,-0.0301,-0.0307,-0.0284,-0.0311,-0.035,-0.0304,-0.0355,-0.0349,-0.0301,-0.0286,-0.0272,-0.0247,-0.0419,0,0,0,0,0,-0.0155,-0.0146,-0.0154,-0.0148,-0.0146,-0.0187,-0.02,-0.021,-0.0224,-0.0232,-0.0266,-0.0276,-0.0272,-0.0272,-0.0285,-0.0282,-0.0316,-0.0264,-0.025,-0.024,-0.0221,-0.0243,-0.0232,-0.0348,-0.0348,-0.0349,0,0,-0.0152,-0.015,-0.0147,-0.0145,-0.0162,-0.0134,-0.019,-0.0191,-0.0165,-0.0239,-0.0222,-0.0249,-0.0258,-0.0232,-0.0224,-0.0249,-0.0221,-0.0229,-0.0221,-0.0207,-0.0233,-0.0223,-0.0214,-0.0343,-0.0344,-0.0345,0,0,-0.011,-0.0133,-0.0095,-0.0088,-0.0085,-0.0107,-0.0096,-0.0125,-0.0131,-0.0116,-0.0146,-0.0143,-0.0159,-0.0156,-0.0153,-0.0074,-0.0155,-0.0073,0.0006,-0.0015,-0.0007,-0.0001,-0.0033,-0.003,-0.0062,-0.0061,-0.0061,0,-0.0102,-0.0056,-0.0088,-0.0038,-0.0028,-0.0078,-0.0032,-0.0043,-0.0063,-0.0062,-0.0078,-0.0084,-0.0114,-0.0069,-0.0027,-0.0052,-0.0077,-0.0068,-0.0004,0.0002,0.0008,-0.0028,-0.0025,-0.0057,-0.0057,-0.0058,-0.0058,0,-0.0025,0.0019,0.0041,0.009,0.0091,0.0118,0.0113,0.0106,0.0081,0.007,0.0092,0.0058,0.0062,0.0055,0.0037,0.0074,0.0038,0.0002,-0.006,0.0023,-0.0018,-0.0017,-0.005,-0.0052,-0.0053,-0.0054,0,0,0.0005,0.008,0.0101,0.0141,0.0158,0.017,0.0207,0.0222,0.0253,0.0228,0.0272,0.0263,0.0221,0.0226,0.0185,0.0171,0.0171,0.0116,0.0112,0.0057,0.0119,0.0062,0.0057,0.0138,0.0139,0.014,0.0071,0,0.0084,0.0199,0.0209,0.0307,0.0357,0.0323,0.0362,0.0365,0.0358,0.0387,0.0351,0.0383,0.0298,0.0306,0.0277,0.0206,0.018,0.0193,0.0072,0.0069,-0.0015,0.0059,0.0073,0.0011,0.0071,0.0071,0.0071,0,0.0192,0.024,0.0351,0.0415,0.0432,0.0472,0.0494,0.0534,0.0555,0.0554,0.0559,0.053,0.0522,0.0443,0.034,0.0352,0.0253,0.0181,0.0176,0.0101,0.0015,-0.0056,0.001,0.0072,0.0072,0.0072,0.0072,0,0.0256,0.0357,0.0436,0.0462,0.0516,0.054,0.0561,0.0581,0.0636,0.0675,0.0722,0.0673,0.0692,0.0557,0.0401,0.0376,0.0281,0.0218,0.0069,0.0062,0.0042,0.0033,0.0148,0.0148,0.0148,0.0148,0.0148,0,0.0355,0.043,0.0471,0.0526,0.0586,0.0607,0.0696,0.0702,0.0778,0.0882,0.0823,0.0888,0.0726,0.0648,0.0462,0.0275,0.0316,0.0102,0.0052,0.007,0.0065,0.0092,0.0087,0.0145,0.0146,0.0146,0.0147,0,0.0427,0.0479,0.0568,0.0621,0.0637,0.068,0.0784,0.0864,0.0914,0.1055,0.1086,0.1074,0.0965,0.0765,0.0567,0.0379,0.0184,0.0102,0.013,0.0084,-0.0039,-0.004,-0.0068,-0.007,-0.0072,-0.0074,-0.0075,0,0.0484,0.0536,0.0619,0.066,0.0685,0.0762,0.0836,0.0919,0.1016,0.1169,0.1244,0.1213,0.1174,0.0845,0.0527,0.0196,0.017,-0.0003,-0.0054,-0.001,-0.0056,-0.0053,-0.0051,-0.0054,-0.0056,-0.0056,-0.0057,0,0.0539,0.0567,0.0634,0.0731,0.0811,0.0911,0.1021,0.1119,0.1261,0.1358,0.1476,0.1465,0.1191,0.0872,0.0442,0.0214,0.0044,-0.0034,0.0029,-0.0006,-0.0004,-0.0048,-0.0044,-0.0065,-0.0064,-0.0064,-0.0063,-0.0063,0.0574,0.0609,0.0714,0.0796,0.0923,0.1072,0.1177,0.1301,0.1473,0.163,0.1609,0.1576,0.1253,0.0676,0.0322,-0.0031,-0.0022,-0.0163,-0.0157,-0.0151,-0.0141,-0.0143,-0.0228,-0.0228,-0.0228,-0.0229,-0.0229,0,0.058,0.0655,0.0756,0.0902,0.1075,0.1129,0.132,0.1417,0.1604,0.1689,0.1738,0.1399,0.1054,0.0694,0.016,-0.0178,-0.0192,-0.0277,-0.0211,-0.0202,-0.0194,-0.0184,-0.0284,-0.0285,-0.0286,-0.0287,0,0,0.0598,0.0677,0.0731,0.1008,0.1153,0.1367,0.1497,0.1607,0.1679,0.1716,0.1683,0.1596,0.1151,0.0751,0.0316,0.0027,-0.0016,-0.0042,0.0034,0.0171,0.0183,-0.0103,-0.0074,0,0,0,0,0]}],[{"header":{"parameterUnit":"m.s-1","parameterCategory":2,"la1":30.2991,"la2":30.254,"lo1":-89.0895,"lo2":-89.0444,"dy":0.0017,"dx":0.0017,"nx":28,"ny":28,"refTime":"2025-05-14T21:00:00:Z","depth":"4","parameterNumber":2,"parameterNumberName":"U-component_of_CURRENTS"},"data":[0,0,0,0,0,0,0,0,0,0,0,0,0,0,0,0,0,0,0,0,0,0,0,0,0,0,0,0,0,0,0,0,0,0,0,0,0,0,0,0,0,0,0,0,0,0,0,0,0,0,0,0,0,0,0,0,0,0,0.1383,0.1384,0,0.133,0.1328,0.1326,0.1389,0.1392,0.1396,0.1399,0.1396,0.1393,0.139,0,0,0,0,0,0,0,0,0,0,0,0,0,0.1442,0.144,0.1383,0.1384,0.1384,0.133,0.1328,0.1326,0.1388,0.1392,0.1397,0.1401,0.1397,0.1393,0.1389,0,0,0,0,0,0,0,0,0,0,0,0,0,0.1393,0.144,0.1383,0.1419,0.1422,0.133,0.1328,0.1325,0.1387,0.1392,0.1398,0.1403,0.1399,0.1394,0.1389,0.1251,0,0,0.1373,0.1371,0,0,0,0,0,0,0,0,0.1396,0.1389,0.1413,0.1416,0.142,0.1383,0.1348,0.1308,0.1386,0.1386,0.1399,0.1405,0.1401,0.1396,0.1355,0.1251,0.1251,0.1373,0.137,0.1368,0.1366,0,0,0,0,0,0,0,0.1399,0.1391,0.1349,0.1413,0.1418,0.1405,0.1403,0.1339,0.1355,0.1387,0.1394,0.1408,0.1403,0.1359,0.1356,0.1251,0.1373,0.1369,0.1365,0.1363,0.1435,0.144,0,0,0,0,0,0,0.1431,0.1394,0.1351,0.1348,0.1436,0.1401,0.1398,0.1379,0.1355,0.136,0.1403,0.1411,0.1365,0.1361,0.1356,0.1484,0.1368,0.1363,0.136,0.143,0.1436,0.1442,0,0,0,0,0,0,0.1431,0.1426,0.1353,0.1383,0.1375,0.1396,0.1372,0.1375,0.139,0.137,0.1374,0.1425,0.1369,0.1363,0.1395,0.1475,0.1361,0.1356,0.1425,0.1432,0.1439,0.1554,0,0,0,0,0,0,0.1432,0.1425,0.1421,0.1384,0.1375,0.1326,0.1369,0.1371,0.1393,0.1403,0.1387,0.139,0.1373,0.1403,0.139,0.1466,0.1352,0.1418,0.1428,0.1437,0.1544,0.1564,0.1582,0,0,0,0,0,0.1434,0.1402,0.142,0.1416,0.1368,0.1327,0.1318,0.1343,0.139,0.1378,0.1424,0.1393,0.1456,0.14,0.1384,0.1461,0.1414,0.1425,0.1436,0.1535,0.156,0.1581,0,0,0,0,0,0,0.1432,0.1406,0.1425,0.139,0.1381,0.1344,0.1344,0.1357,0.1369,0.1404,0.1401,0.1404,0.1468,0.1449,0.1389,0.1524,0.1449,0.1457,0.1531,0.1553,0.1572,0.1612,0.1348,0,0,0,0,0,0.1428,0.1407,0.1384,0.1371,0.1365,0.1359,0.1353,0.1363,0.1373,0.1384,0.1406,0.1449,0.1482,0.151,0.1508,0.1538,0.1526,0.1602,0.1621,0.1637,0.1669,0.174,0.1767,0.1478,0.1478,0.1478,0,0,0.1426,0.1419,0.1406,0.1372,0.1369,0.1389,0.1366,0.1361,0.1382,0.1376,0.1441,0.148,0.1501,0.1569,0.1601,0.1576,0.1707,0.1651,0.1664,0.1688,0.1754,0.1782,0.1806,0.1486,0.1485,0.1483,0,0,0.143,0.1407,0.14,0.1417,0.1425,0.1408,0.1423,0.1417,0.141,0.1458,0.1498,0.1602,0.1626,0.1686,0.1713,0.1828,0.1785,0.1855,0.1993,0.2062,0.2085,0.2106,0.2081,0.2098,0.1888,0.1889,0.1889,0,0.1443,0.1438,0.1394,0.1436,0.1465,0.1441,0.1469,0.1442,0.1464,0.1487,0.1515,0.1686,0.1691,0.1816,0.1902,0.1867,0.188,0.189,0.2083,0.2103,0.2122,0.2092,0.211,0.1896,0.1895,0.1894,0.1893,0,0.141,0.1494,0.1501,0.1551,0.1555,0.1569,0.1553,0.1573,0.1604,0.1625,0.1744,0.1794,0.1925,0.1962,0.1973,0.2141,0.2091,0.207,0.201,0.2157,0.2117,0.2133,0.1905,0.1903,0.1901,0.1899,0,0,0.1276,0.1438,0.1467,0.1561,0.1618,0.1611,0.1656,0.1668,0.1681,0.1803,0.1906,0.204,0.2116,0.2158,0.2197,0.2298,0.2425,0.2283,0.2283,0.2232,0.2537,0.2373,0.2373,0.2455,0.246,0.2464,0.2435,0,0.1289,0.1406,0.1458,0.1616,0.1689,0.1727,0.1753,0.1786,0.1776,0.1866,0.2007,0.2122,0.2161,0.2265,0.2375,0.2419,0.2485,0.2431,0.2427,0.2425,0.2242,0.2394,0.2479,0.2447,0.245,0.2453,0.2455,0,0.1232,0.1356,0.1476,0.1689,0.1703,0.178,0.1802,0.1811,0.1907,0.1953,0.2142,0.2213,0.2454,0.2443,0.2615,0.2593,0.2593,0.2609,0.2607,0.2434,0.2296,0.2286,0.2483,0.2481,0.2479,0.2477,0.2475,0,0.1134,0.137,0.1461,0.1538,0.1731,0.1792,0.1853,0.1878,0.1862,0.2049,0.2134,0.2356,0.2506,0.2618,0.2693,0.2677,0.2828,0.2769,0.2596,0.2578,0.2672,0.2651,0.2861,0.2861,0.2861,0.2862,0.2862,0,0.1101,0.1224,0.1457,0.1544,0.1653,0.1776,0.1803,0.1886,0.1981,0.2033,0.2206,0.23,0.2573,0.2675,0.2729,0.2728,0.2847,0.2649,0.2596,0.2714,0.2699,0.2679,0.2658,0.286,0.2861,0.2861,0.2861,0,0.0989,0.1147,0.1304,0.1545,0.1637,0.1694,0.185,0.1827,0.1952,0.2047,0.2173,0.2335,0.2487,0.2631,0.278,0.2718,0.276,0.2703,0.2796,0.2742,0.2433,0.242,0.2498,0.2493,0.2489,0.2485,0.2482,0,0.0926,0.1009,0.1271,0.135,0.1484,0.1616,0.1679,0.1848,0.1839,0.2026,0.2087,0.2279,0.2396,0.2448,0.2609,0.2681,0.2651,0.2607,0.2571,0.2475,0.2415,0.2408,0.24,0.2475,0.2474,0.2473,0.2471,0,0.084,0.0915,0.1016,0.1192,0.1324,0.1433,0.1575,0.16,0.1771,0.1913,0.2003,0.2104,0.2222,0.2352,0.2429,0.2471,0.2632,0.256,0.2568,0.2533,0.2447,0.239,0.2388,0.2456,0.2458,0.246,0.2461,0,0.0725,0.0741,0.0867,0.0993,0.113,0.1232,0.1344,0.1445,0.1526,0.1781,0.1811,0.2022,0.2208,0.2235,0.2314,0.2366,0.2316,0.223,0.2254,0.2272,0.2223,0.2082,0.1967,0,0,0,0,0,0.0622,0.0631,0.0686,0.0832,0.0929,0.1057,0.124,0.1339,0.1571,0.1597,0.1711,0.1841,0.197,0.2036,0.2048,0.2177,0.2304,0.2173,0.2211,0.2371,0.2389,0.2358,0,0,0,0,0,0,0.0562,0.0602,0.0616,0.0649,0.0719,0.086,0.0993,0.1171,0.1194,0.1437,0.1513,0.1698,0.1837,0.1959,0.2,0.203,0.201,0.2307,0.2301,0.2361,0.2377,0.2392,0.2366,0,0,0,0,0]},{"header":{"parameterUnit":"m.s-1","parameterCategory":2,"la1":30.2991,"la2":30.254,"lo1":-89.0895,"lo2":-89.0444,"dy":0.0017,"dx":0.0017,"nx":28,"ny":28,"refTime":"2025-05-14T21:00:00:Z","depth":"4","parameterNumber":3,"parameterNumberName":"V-component_of_CURRENTS"},"data":[0,0,0,0,0,0,0,0,0,0,0,0,0,0,0,0,0,0,0,0,0,0,0,0,0,0,0,0,0,0,0,0,0,0,0,0,0,0,0,0,0,0,0,0,0,0,0,0,0,0,0,0,0,0,0,0,0,0,0.0004,0.0004,0,0.0045,0.0046,0.0046,0.0038,0.0037,0.0036,0.0035,0.0065,0.0067,0.0069,0,0,0,0,0,0,0,0,0,0,0,0,0,-0.0067,-0.0066,0.0004,0.0004,0.0004,0.0045,0.0046,0.0047,0.0039,0.0037,0.0036,0.0035,0.0065,0.0067,0.0069,0,0,0,0,0,0,0,0,0,0,0,0,0,-0.0029,-0.0065,0.0004,0.0002,0.0002,0.0044,0.0046,0.0047,0.0039,0.0037,0.0036,0.0034,0.0064,0.0067,0.0069,0.0118,0,0,0.0078,0.0079,0,0,0,0,0,0,0,0,-0.0031,-0.0026,0.0002,0.0002,0.0002,0.0032,0.0031,0.0069,0.0039,0.0029,0.0035,0.0033,0.0052,0.0055,0.0072,0.012,0.0121,0.0078,0.0079,0.0081,0.0081,0,0,0,0,0,0,0,-0.0034,-0.0028,0.0024,0.0003,0.0003,0.0004,0.0008,0.0039,0.0052,0.003,0.0028,0.0028,0.0052,0.007,0.0073,0.0121,0.0078,0.008,0.0082,0.0083,0.0079,0.0077,0,0,0,0,0,0,-0.0045,-0.003,0.0022,0.0025,-0.0023,0.0006,0.0011,0.0027,0.0052,0.0053,0.0029,0.0027,0.0066,0.007,0.0074,0.0066,0.0081,0.0083,0.0085,0.008,0.0078,0.0076,0,0,0,0,0,0,-0.0046,-0.004,0.0021,-0.0006,0.0001,0.0009,0.0027,0.0029,0.004,0.005,0.0052,0.0037,0.0065,0.007,0.0088,0.0069,0.0084,0.0087,0.0082,0.008,0.0077,0.0093,0,0,0,0,0,0,-0.0048,-0.004,-0.003,-0.0006,0.0002,0.0052,0.0028,0.003,0.004,0.0038,0.0058,0.006,0.0064,0.0084,0.009,0.0073,0.0089,0.0085,0.0081,0.0078,0.0095,0.0092,0.0089,0,0,0,0,0,-0.005,-0.0024,-0.003,-0.0024,0.0015,0.0053,0.0059,0.006,0.0042,0.0062,0.0057,0.0059,0.0065,0.0087,0.0094,0.0077,0.0086,0.0082,0.0078,0.0096,0.0092,0.0089,0,0,0,0,0,0,-0.0049,-0.0022,-0.0028,0.0005,0.0025,0.005,0.0067,0.0064,0.0079,0.007,0.0071,0.0073,0.0074,0.0072,0.0094,0.0057,0.0063,0.0061,0.0073,0.007,0.0067,0.0078,0.0091,0,0,0,0,0,-0.0045,-0.0019,0.0002,0.0027,0.0039,0.0052,0.0065,0.0067,0.008,0.0085,0.0091,0.0078,0.0067,0.0067,0.007,0.0077,0.0063,0.0055,0.0051,0.0049,0.0058,0.0022,0.0018,0.0064,0.0064,0.0064,0,0,-0.0039,-0.0022,-0.0008,0.0028,0.0045,0.0067,0.0058,0.0084,0.0088,0.0087,0.0098,0.0087,0.0068,0.0062,0.0058,0.0058,0.0023,0.0044,0.0043,0.0053,0.0018,0.0014,0.001,0.0061,0.0062,0.0062,0,0,-0.0004,0.0005,0.0041,0.0056,0.0078,0.0083,0.0088,0.0113,0.011,0.0125,0.0099,0.0081,0.0087,0.006,0.0044,0.0027,0.0015,0.0007,0.0004,-0.0031,-0.0034,-0.0037,-0.0072,-0.0078,-0.0002,-0.0002,-0.0002,0,-0.0002,0.0045,0.0057,0.0087,0.0094,0.0088,0.0116,0.0117,0.0136,0.0129,0.0124,0.0093,0.0081,0.0048,0.0026,0.0024,0.0001,0.0029,-0.0031,-0.0034,-0.0038,-0.0073,-0.008,-0.0001,-0.0001,-0.0001,-0.0002,0,0.0073,0.0086,0.0108,0.0135,0.0145,0.0172,0.0164,0.0169,0.0153,0.014,0.012,0.0104,0.0079,0.0052,0.0039,-0.0006,-0.0016,-0.002,-0.001,-0.004,-0.0077,-0.0085,-0.0001,-0.0001,-0.0001,-0.0001,0,0,0.0126,0.0157,0.016,0.0167,0.0171,0.0192,0.0183,0.0182,0.0172,0.0159,0.0151,0.0101,0.0082,0.0062,0.0033,-0.0008,-0.0059,-0.0026,-0.0028,-0.0042,-0.014,-0.0138,-0.0146,-0.0071,-0.0072,-0.0073,-0.016,0,0.0176,0.0233,0.0233,0.0257,0.0274,0.025,0.0248,0.0229,0.0201,0.0192,0.0141,0.0131,0.0085,0.0081,0.0027,-0.0024,-0.0076,-0.0035,-0.0126,-0.0129,-0.0107,-0.0154,-0.0076,-0.0165,-0.0167,-0.0168,-0.0169,0,0.0252,0.0266,0.0311,0.0305,0.0315,0.0322,0.0306,0.0311,0.0265,0.0247,0.0203,0.0171,0.0112,0.009,-0.0031,-0.0002,-0.0074,-0.0123,-0.0127,-0.0131,-0.014,-0.0131,-0.0182,-0.0181,-0.018,-0.018,-0.0179,0,0.0292,0.0318,0.0353,0.0354,0.0351,0.0357,0.0362,0.0322,0.0335,0.0291,0.029,0.0203,0.0185,0.0084,-0.003,-0.0031,-0.0157,-0.0168,-0.024,-0.0241,-0.0219,-0.0214,-0.0259,-0.0259,-0.0259,-0.0259,-0.0258,0,0.0348,0.0366,0.0373,0.0387,0.0414,0.0401,0.0429,0.041,0.0405,0.0421,0.0333,0.0324,0.0182,0.0093,-0.0018,-0.0151,-0.0154,-0.0245,-0.0265,-0.0214,-0.0209,-0.0224,-0.0219,-0.0262,-0.0261,-0.0261,-0.026,0,0.0388,0.04,0.0429,0.0433,0.0435,0.0461,0.05,0.0517,0.0501,0.0523,0.0524,0.0417,0.0296,0.0145,-0.0021,-0.0125,-0.0249,-0.0299,-0.0234,-0.0247,-0.0316,-0.0309,-0.0389,-0.0389,-0.039,-0.039,-0.0391,0,0.0422,0.0439,0.0467,0.049,0.0495,0.0532,0.0557,0.0564,0.0595,0.0581,0.0601,0.0488,0.0399,0.0166,-0.0008,-0.0228,-0.0262,-0.0341,-0.0338,-0.0319,-0.0331,-0.0323,-0.0316,-0.0392,-0.0392,-0.0392,-0.0392,0,0.045,0.0467,0.0492,0.0548,0.0579,0.0621,0.0666,0.0698,0.0716,0.0705,0.0668,0.0533,0.0386,0.0182,0.0003,-0.0154,-0.0294,-0.0348,-0.0348,-0.0346,-0.0324,-0.0333,-0.0325,-0.0394,-0.0394,-0.0394,-0.0394,0,0.0469,0.05,0.0545,0.0591,0.0649,0.0691,0.0709,0.0742,0.0769,0.0759,0.0743,0.0575,0.0474,0.0219,0.0063,-0.01,-0.0146,-0.0208,-0.0216,-0.0216,-0.0144,-0.009,-0.011,0,0,0,0,0,0.0476,0.0512,0.0577,0.0632,0.0705,0.0724,0.0774,0.079,0.0806,0.0796,0.0779,0.0649,0.0393,0.0274,0.0115,0.0035,-0.0186,-0.0161,-0.0263,-0.0406,-0.0403,-0.0349,0,0,0,0,0,0,0.0475,0.0538,0.0575,0.0662,0.0709,0.0774,0.0798,0.0801,0.0804,0.0798,0.0671,0.0605,0.0362,0.0496,0.0113,0.006,-0.0031,-0.0278,-0.0282,-0.0407,-0.0405,-0.0403,-0.0346,0,0,0,0,0]}]]